GFSSE_prec_precacc_255.txt.gz
Total_Precipitation_Accumulation
0.51 0.16 0.15 0.28 0.24 0.16 0.13 0.09 0.06 0.05 0.09 0.07 0.07 0.05 0.05 0.04 0.06 0.04 0.12 0.17 0.11 0.13 0.09 0.02 0.02 0.06 0.10 0.12 0.18 0.28 0.21 0.31 0.49 0.77 0.63 0.51 0.35 0.32 0.36 0.45 0.61 0.94 1.19
0.76 0.47 0.47 0.35 0.17 0.15 0.21 0.15 0.09 0.07 0.10 0.07 0.03 0.01 0.01 0.01 0.02 0.05 0.17 0.24 0.23 0.16 0.13 0.05 0.05 0.07 0.14 0.11 0.10 0.13 0.13 0.10 0.14 0.41 0.71 0.94 0.73 0.53 0.64 0.62 0.49 0.68 0.94
1.57 1.10 1.61 1.35 0.68 0.31 0.27 0.23 0.09 0.08 0.06 0.05 0.02 0.01 0.02 0.02 0.02 0.03 0.04 0.12 0.16 0.10 0.09 0.05 0.06 0.08 0.10 0.10 0.13 0.12 0.05 0.03 0.08 0.20 0.53 0.94 0.83 1.07 0.65 0.45 0.40 0.61 0.76
1.53 1.61 1.47 2.33 1.47 1.00 0.75 0.82 0.87 0.41 0.29 0.09 0.07 0.10 0.12 0.09 0.08 0.10 0.07 0.11 0.09 0.09 0.10 0.10 0.12 0.14 0.13 0.12 0.12 0.09 0.03 0.02 0.02 0.11 0.40 1.56 1.45 1.10 0.84 0.52 0.59 0.73 0.88
1.09 1.01 1.31 2.12 1.59 1.06 1.15 1.15 1.68 2.01 1.89 1.04 0.46 0.42 0.39 0.31 0.20 0.12 0.11 0.11 0.11 0.16 0.15 0.10 0.17 0.17 0.07 0.03 0.08 0.11 0.01 0.02 0.07 0.21 1.20 1.26 0.98 1.52 1.66 0.96 0.84 0.69 0.93
2.08 1.53 1.80 2.17 1.34 0.75 1.13 1.46 1.53 2.18 3.37 4.19 4.09 2.55 1.36 0.89 0.47 0.41 0.30 0.26 0.27 0.33 0.40 0.43 0.45 0.36 0.03 0.01 0.00 0.02 0.01 0.04 0.21 0.43 1.35 0.74 1.10 1.24 1.19 1.03 0.61 0.66 0.95
4.59 4.05 3.70 4.00 5.13 2.85 2.56 1.76 1.36 1.47 2.52 4.90 5.29 3.92 2.58 1.93 1.72 1.18 0.69 0.51 0.55 0.52 0.42 0.44 0.26 0.19 0.03 0.01 0.01 0.05 0.04 0.06 0.21 0.46 1.01 0.67 1.33 1.23 1.04 0.90 0.73 0.59 0.67
6.63 8.76 9.08 7.75 8.10 7.64 4.86 3.04 1.99 1.41 1.26 1.68 2.39 2.00 2.09 2.35 1.79 1.64 1.44 0.88 0.60 0.43 0.40 0.29 0.13 0.08 0.06 0.03 0.04 0.10 0.07 0.04 0.16 0.64 1.30 0.91 1.14 1.25 0.80 0.65 0.47 0.38 0.35
5.54 7.05 10.73 9.55 7.17 5.94 6.78 5.98 3.58 2.63 1.74 1.50 1.48 1.79 1.43 2.21 1.72 1.28 1.40 1.61 0.78 0.42 0.62 0.48 0.33 0.54 0.22 0.24 0.21 0.19 0.11 0.10 0.22 0.46 0.99 0.65 0.86 1.40 0.99 0.60 0.41 0.31 0.27
2.60 3.37 3.98 4.09 3.32 2.93 3.65 4.60 4.44 3.05 2.55 2.21 1.49 1.61 1.74 1.69 1.59 1.43 1.46 1.68 1.33 0.59 0.52 0.52 0.69 0.52 0.57 0.39 0.22 0.26 0.30 0.29 0.18 0.57 0.66 0.41 0.67 1.13 1.11 0.67 0.53 0.44 0.30
2.30 1.64 1.69 1.30 0.90 0.88 1.34 2.08 2.81 2.59 2.65 2.61 2.12 1.37 2.08 2.20 1.31 1.60 1.83 1.64 1.13 0.61 0.56 0.59 0.57 0.61 0.59 0.63 0.65 0.64 0.46 0.21 0.31 0.38 0.46 0.31 0.59 0.63 0.95 1.15 0.80 0.56 0.50
0.95 0.78 0.51 0.41 0.33 0.30 0.30 0.47 0.80 1.57 2.31 2.35 2.90 1.66 1.55 2.43 1.42 1.50 1.89 1.38 1.16 0.76 0.54 0.56 0.52 0.56 0.54 0.44 0.59 0.52 0.25 0.19 0.31 0.56 0.40 0.29 0.50 0.54 0.90 1.09 0.68 0.67 0.69
0.32 0.22 0.28 0.50 0.51 0.25 0.26 0.24 0.32 0.77 1.56 1.62 2.61 2.26 1.00 1.45 1.74 1.82 2.22 1.40 0.98 0.93 0.74 0.65 0.38 0.32 0.27 0.29 0.34 0.38 0.41 0.42 0.52 0.53 0.43 0.21 0.45 0.68 0.94 0.71 0.58 0.55 0.56
0.16 0.16 0.12 0.18 0.27 0.29 0.28 0.27 0.29 0.56 0.98 1.02 1.39 2.46 1.26 1.17 1.35 1.57 1.64 1.25 0.66 0.60 0.57 0.61 0.46 0.40 0.38 0.43 0.38 0.37 0.48 0.77 0.89 1.14 0.56 0.29 0.51 1.03 0.91 0.76 0.58 0.49 0.49
0.08 0.16 0.20 0.21 0.39 0.49 0.49 0.37 0.30 0.79 0.95 0.87 0.90 1.28 1.26 1.16 1.01 1.39 1.18 1.44 0.80 0.57 0.47 0.50 0.40 0.35 0.32 0.35 0.25 0.32 0.43 0.72 1.30 1.06 0.71 0.39 0.37 0.71 1.06 1.04 0.80 0.52 0.56
0.10 0.19 0.28 0.29 0.47 0.37 0.50 0.58 0.67 0.83 0.95 0.82 0.74 0.91 0.96 1.11 1.10 1.30 1.21 1.14 1.04 1.02 0.54 0.49 0.46 0.27 0.30 0.35 0.39 0.27 0.29 0.34 0.54 0.58 0.43 0.36 0.47 0.71 1.23 1.53 1.49 1.16 0.70
0.22 0.25 0.42 0.65 0.56 0.29 0.26 0.31 0.66 1.07 0.89 0.78 0.79 0.83 0.87 0.86 0.94 1.03 1.14 1.05 0.90 1.29 0.85 0.59 0.65 0.63 0.46 0.31 0.33 0.36 0.38 0.24 0.16 0.18 0.25 0.30 0.40 0.62 0.75 1.06 1.43 1.52 1.42
0.07 0.19 0.43 0.61 0.58 0.51 0.33 0.46 0.49 0.86 1.10 0.93 0.71 0.76 1.06 1.01 0.94 0.86 1.04 0.85 1.06 1.03 0.85 0.72 0.90 0.89 0.76 0.40 0.37 0.36 0.43 0.40 0.33 0.25 0.15 0.17 0.20 0.18 0.36 0.69 0.92 1.39 1.56
0.02 0.19 0.62 0.82 0.83 0.78 0.69 0.73 1.01 0.97 0.96 0.77 0.77 0.69 0.68 0.74 0.97 0.90 0.90 1.00 1.21 1.32 1.19 1.22 1.14 1.09 0.86 0.67 0.43 0.31 0.35 0.35 0.24 0.25 0.17 0.12 0.13 0.18 0.22 0.41 0.59 0.80 1.37
0.03 0.26 0.74 0.92 1.16 1.30 1.14 1.06 0.89 0.81 0.73 0.71 0.63 0.70 0.82 0.85 0.82 0.96 0.87 0.83 1.07 1.39 1.10 1.04 0.93 1.00 0.97 0.96 0.82 0.78 0.71 0.66 0.51 0.40 0.32 0.25 0.22 0.25 0.29 0.29 0.40 0.44 0.51
0.10 0.40 0.74 0.90 1.20 1.16 0.66 0.53 0.57 0.57 0.45 0.59 0.60 0.68 0.86 1.09 1.12 1.01 0.89 0.87 0.97 1.01 1.02 1.29 1.55 1.74 1.55 1.25 1.19 1.03 0.72 0.62 0.52 0.36 0.30 0.24 0.23 0.26 0.34 0.42 0.47 0.55 0.50
0.24 0.52 0.62 0.49 0.35 0.21 0.18 0.29 0.42 0.51 0.52 0.48 0.57 0.74 0.69 1.02 1.05 0.88 0.87 0.87 1.00 1.12 1.05 0.89 1.03 1.19 1.18 1.10 1.05 1.04 1.00 0.84 0.62 0.42 0.35 0.32 0.31 0.32 0.32 0.31 0.39 0.47 0.57
0.15 0.16 0.14 0.11 0.09 0.13 0.16 0.38 0.61 0.91 0.84 0.69 0.60 0.60 0.75 0.96 1.15 1.06 0.92 0.82 0.81 1.23 1.50 1.26 1.20 1.24 1.13 1.14 1.15 1.19 1.11 0.87 0.58 0.59 0.57 0.42 0.43 0.36 0.33 0.40 0.46 0.60 0.66
0.03 0.14 0.15 0.15 0.17 0.26 0.30 0.40 0.54 0.54 0.42 0.28 0.31 0.40 0.51 0.86 1.21 1.03 1.37 1.49 1.35 1.16 1.31 1.67 1.73 1.57 1.69 1.72 2.05 1.96 1.60 1.48 1.42 1.23 0.75 0.66 0.50 0.50 0.55 0.64 0.72 0.87 0.92
0.09 0.16 0.18 0.17 0.21 0.32 0.38 0.43 0.76 0.83 0.85 0.83 0.96 1.11 1.20 1.37 1.67 1.65 1.54 1.98 1.96 1.82 1.53 1.90 2.53 2.91 2.87 3.32 3.33 2.99 2.84 2.40 1.89 1.56 1.20 0.95 0.94 0.72 0.62 0.65 0.70 0.85 0.99
0.13 0.18 0.15 0.27 0.43 0.74 0.99 1.15 1.31 1.55 1.58 1.55 1.53 1.52 1.58 1.78 2.20 2.32 2.52 2.42 2.77 2.72 2.53 2.36 2.57 3.35 3.90 3.65 3.17 3.07 2.65 2.22 1.71 1.74 1.68 1.48 1.53 1.28 1.03 0.94 0.78 0.79 1.04

GFSSE_prec_precacc_258.txt.gz
Total_Precipitation_Accumulation
0.51 0.16 0.15 0.28 0.24 0.16 0.13 0.09 0.06 0.05 0.09 0.07 0.07 0.05 0.05 0.04 0.06 0.04 0.12 0.17 0.11 0.13 0.09 0.02 0.02 0.06 0.10 0.12 0.18 0.28 0.21 0.31 0.49 0.77 0.63 0.51 0.35 0.32 0.36 0.45 0.61 0.94 1.19
0.76 0.47 0.47 0.35 0.17 0.15 0.21 0.15 0.09 0.07 0.10 0.07 0.03 0.01 0.01 0.01 0.02 0.05 0.17 0.24 0.23 0.16 0.13 0.05 0.05 0.07 0.14 0.11 0.10 0.13 0.13 0.10 0.14 0.41 0.71 0.94 0.73 0.53 0.64 0.62 0.49 0.68 0.94
1.57 1.10 1.61 1.35 0.68 0.31 0.27 0.23 0.09 0.08 0.06 0.05 0.02 0.01 0.02 0.02 0.02 0.03 0.04 0.12 0.16 0.10 0.09 0.05 0.06 0.08 0.10 0.10 0.13 0.12 0.05 0.03 0.08 0.20 0.53 0.94 0.83 1.07 0.65 0.45 0.40 0.61 0.76
1.53 1.61 1.47 2.33 1.47 1.00 0.75 0.82 0.87 0.41 0.29 0.09 0.07 0.10 0.12 0.09 0.08 0.10 0.07 0.11 0.09 0.09 0.10 0.10 0.12 0.14 0.13 0.12 0.12 0.09 0.03 0.02 0.02 0.11 0.40 1.56 1.45 1.10 0.84 0.52 0.59 0.73 0.88
1.09 1.01 1.31 2.12 1.59 1.06 1.15 1.15 1.68 2.01 1.89 1.04 0.46 0.42 0.39 0.31 0.20 0.12 0.11 0.11 0.11 0.16 0.15 0.10 0.17 0.17 0.07 0.03 0.08 0.11 0.01 0.02 0.07 0.21 1.20 1.26 0.98 1.52 1.66 0.96 0.84 0.69 0.93
2.08 1.53 1.80 2.17 1.34 0.75 1.13 1.46 1.53 2.18 3.37 4.19 4.09 2.55 1.36 0.89 0.47 0.41 0.30 0.26 0.27 0.33 0.40 0.43 0.45 0.36 0.03 0.01 0.00 0.02 0.01 0.04 0.21 0.43 1.35 0.74 1.10 1.24 1.19 1.03 0.61 0.66 0.95
4.59 4.05 3.70 4.00 5.13 2.85 2.56 1.76 1.36 1.47 2.52 4.90 5.29 3.92 2.58 1.93 1.72 1.18 0.69 0.51 0.55 0.52 0.42 0.44 0.26 0.19 0.03 0.01 0.01 0.05 0.04 0.06 0.21 0.46 1.01 0.67 1.33 1.23 1.04 0.90 0.73 0.59 0.67
6.63 8.76 9.08 7.75 8.10 7.64 4.86 3.04 1.99 1.41 1.26 1.68 2.39 2.00 2.09 2.35 1.79 1.64 1.44 0.88 0.60 0.43 0.40 0.29 0.13 0.08 0.06 0.03 0.04 0.10 0.07 0.04 0.16 0.64 1.30 0.91 1.14 1.25 0.80 0.65 0.47 0.38 0.35
5.54 7.05 10.73 9.55 7.17 5.94 6.78 5.98 3.58 2.63 1.74 1.50 1.48 1.79 1.43 2.21 1.72 1.28 1.40 1.61 0.78 0.42 0.62 0.48 0.33 0.54 0.22 0.24 0.21 0.19 0.11 0.10 0.22 0.46 0.99 0.65 0.86 1.40 0.99 0.60 0.41 0.31 0.27
2.60 3.37 3.98 4.09 3.32 2.93 3.65 4.60 4.44 3.05 2.55 2.21 1.49 1.61 1.74 1.69 1.59 1.43 1.46 1.68 1.33 0.59 0.52 0.52 0.69 0.52 0.57 0.39 0.22 0.26 0.30 0.29 0.18 0.57 0.66 0.41 0.67 1.13 1.11 0.67 0.53 0.44 0.30
2.30 1.64 1.69 1.30 0.90 0.88 1.34 2.08 2.81 2.59 2.65 2.61 2.12 1.37 2.08 2.20 1.31 1.60 1.83 1.64 1.13 0.61 0.56 0.59 0.57 0.61 0.59 0.63 0.65 0.64 0.46 0.21 0.31 0.38 0.46 0.31 0.59 0.63 0.95 1.15 0.80 0.56 0.50
0.95 0.78 0.51 0.41 0.33 0.30 0.30 0.47 0.80 1.57 2.31 2.35 2.90 1.66 1.55 2.43 1.42 1.50 1.89 1.38 1.16 0.76 0.54 0.56 0.52 0.56 0.54 0.44 0.59 0.52 0.25 0.19 0.31 0.56 0.40 0.29 0.50 0.54 0.90 1.09 0.68 0.67 0.69
0.32 0.22 0.28 0.50 0.51 0.25 0.26 0.24 0.32 0.77 1.56 1.62 2.61 2.26 1.00 1.45 1.74 1.82 2.22 1.40 0.98 0.93 0.74 0.65 0.38 0.32 0.27 0.29 0.34 0.38 0.41 0.42 0.52 0.53 0.43 0.21 0.45 0.68 0.94 0.71 0.58 0.55 0.56
0.16 0.16 0.12 0.18 0.27 0.29 0.28 0.27 0.29 0.56 0.98 1.02 1.39 2.46 1.26 1.17 1.35 1.57 1.64 1.25 0.66 0.60 0.57 0.61 0.46 0.40 0.38 0.43 0.38 0.37 0.48 0.77 0.89 1.14 0.56 0.29 0.51 1.03 0.91 0.76 0.58 0.49 0.49
0.08 0.16 0.20 0.21 0.39 0.49 0.49 0.37 0.30 0.79 0.95 0.87 0.90 1.28 1.26 1.16 1.01 1.39 1.18 1.44 0.80 0.57 0.47 0.50 0.40 0.35 0.32 0.35 0.25 0.32 0.43 0.72 1.30 1.06 0.71 0.39 0.37 0.71 1.06 1.04 0.80 0.52 0.56
0.10 0.19 0.28 0.29 0.47 0.37 0.50 0.58 0.67 0.83 0.95 0.82 0.74 0.91 0.96 1.11 1.10 1.30 1.21 1.14 1.04 1.02 0.54 0.49 0.46 0.27 0.30 0.35 0.39 0.27 0.29 0.34 0.54 0.58 0.43 0.36 0.47 0.71 1.23 1.53 1.49 1.16 0.70
0.22 0.25 0.42 0.65 0.56 0.29 0.26 0.31 0.66 1.07 0.89 0.78 0.79 0.83 0.87 0.86 0.94 1.03 1.14 1.05 0.90 1.29 0.85 0.59 0.65 0.63 0.46 0.31 0.33 0.36 0.38 0.24 0.16 0.18 0.25 0.30 0.40 0.62 0.75 1.06 1.43 1.52 1.42
0.07 0.19 0.43 0.61 0.58 0.51 0.33 0.46 0.49 0.86 1.10 0.93 0.71 0.76 1.06 1.01 0.94 0.86 1.04 0.85 1.06 1.03 0.85 0.72 0.90 0.89 0.76 0.40 0.37 0.36 0.43 0.40 0.33 0.25 0.15 0.17 0.20 0.18 0.36 0.69 0.92 1.39 1.56
0.02 0.19 0.62 0.82 0.83 0.78 0.69 0.73 1.01 0.97 0.96 0.77 0.77 0.69 0.68 0.74 0.97 0.90 0.90 1.00 1.21 1.32 1.19 1.22 1.14 1.09 0.86 0.67 0.43 0.31 0.35 0.35 0.24 0.25 0.17 0.12 0.13 0.18 0.22 0.41 0.59 0.80 1.37
0.03 0.26 0.74 0.92 1.16 1.30 1.14 1.06 0.89 0.81 0.73 0.71 0.63 0.70 0.82 0.85 0.82 0.96 0.87 0.83 1.07 1.39 1.10 1.04 0.93 1.00 0.97 0.96 0.82 0.78 0.71 0.66 0.51 0.40 0.32 0.25 0.22 0.26 0.29 0.29 0.40 0.44 0.51
0.10 0.40 0.74 0.90 1.20 1.16 0.66 0.53 0.57 0.57 0.45 0.59 0.60 0.68 0.86 1.09 1.12 1.01 0.89 0.87 0.97 1.01 1.02 1.29 1.55 1.74 1.55 1.25 1.19 1.03 0.72 0.62 0.53 0.37 0.32 0.25 0.23 0.26 0.34 0.42 0.47 0.56 0.51
0.24 0.52 0.62 0.49 0.35 0.21 0.18 0.29 0.42 0.51 0.52 0.48 0.57 0.74 0.69 1.02 1.05 0.88 0.87 0.87 1.00 1.12 1.05 0.89 1.03 1.19 1.18 1.10 1.05 1.06 1.01 0.86 0.62 0.42 0.35 0.32 0.31 0.32 0.32 0.34 0.42 0.50 0.60
0.15 0.16 0.14 0.11 0.09 0.13 0.16 0.38 0.61 0.91 0.84 0.69 0.60 0.60 0.75 0.96 1.15 1.06 0.92 0.82 0.81 1.23 1.50 1.26 1.20 1.24 1.13 1.14 1.15 1.19 1.12 0.87 0.59 0.60 0.57 0.42 0.44 0.38 0.38 0.50 0.54 0.65 0.68
0.03 0.14 0.15 0.15 0.17 0.26 0.30 0.40 0.54 0.54 0.42 0.28 0.31 0.40 0.51 0.86 1.21 1.03 1.37 1.49 1.35 1.16 1.31 1.67 1.73 1.57 1.69 1.72 2.05 1.96 1.61 1.51 1.47 1.26 0.80 0.70 0.54 0.56 0.61 0.70 0.77 0.89 0.92
0.09 0.16 0.18 0.17 0.21 0.32 0.38 0.43 0.76 0.83 0.85 0.83 0.96 1.11 1.20 1.37 1.67 1.65 1.54 1.98 1.99 1.83 1.53 1.91 2.54 2.91 2.88 3.32 3.34 3.05 3.06 2.52 1.95 1.60 1.22 0.98 0.98 0.79 0.69 0.69 0.73 0.89 1.02
0.13 0.18 0.15 0.27 0.43 0.74 0.99 1.15 1.31 1.55 1.58 1.55 1.53 1.52 1.58 1.78 2.20 2.32 2.52 2.43 2.81 2.76 2.54 2.37 2.58 3.36 3.91 3.67 3.21 3.23 2.98 2.50 1.79 1.81 1.74 1.52 1.56 1.30 1.07 1.07 0.95 0.86 1.05

GFSSE_prec_precacc_264.txt.gz
Total_Precipitation_Accumulation
0.51 0.16 0.15 0.28 0.24 0.16 0.13 0.09 0.06 0.05 0.09 0.07 0.07 0.05 0.05 0.04 0.06 0.04 0.12 0.17 0.11 0.13 0.09 0.02 0.02 0.06 0.10 0.12 0.18 0.28 0.21 0.31 0.49 0.77 0.63 0.51 0.35 0.32 0.36 0.45 0.61 0.94 1.19
0.76 0.47 0.47 0.35 0.17 0.15 0.21 0.15 0.09 0.07 0.10 0.07 0.03 0.01 0.01 0.01 0.02 0.05 0.17 0.24 0.23 0.16 0.13 0.05 0.05 0.07 0.14 0.11 0.10 0.13 0.13 0.10 0.14 0.41 0.71 0.94 0.73 0.53 0.64 0.62 0.49 0.68 0.94
1.57 1.10 1.61 1.35 0.68 0.31 0.27 0.23 0.09 0.08 0.06 0.05 0.02 0.01 0.02 0.02 0.02 0.03 0.04 0.12 0.16 0.10 0.09 0.05 0.06 0.08 0.10 0.10 0.13 0.12 0.05 0.03 0.08 0.20 0.53 0.94 0.83 1.07 0.65 0.45 0.40 0.61 0.76
1.53 1.61 1.47 2.33 1.47 1.00 0.75 0.82 0.87 0.41 0.29 0.09 0.07 0.10 0.12 0.09 0.08 0.10 0.07 0.11 0.09 0.09 0.10 0.10 0.12 0.14 0.13 0.12 0.12 0.09 0.03 0.02 0.02 0.11 0.40 1.56 1.45 1.10 0.84 0.52 0.59 0.73 0.88
1.09 1.01 1.31 2.12 1.59 1.06 1.15 1.15 1.68 2.01 1.89 1.04 0.46 0.42 0.39 0.31 0.20 0.12 0.11 0.11 0.11 0.16 0.15 0.10 0.17 0.17 0.07 0.03 0.08 0.11 0.01 0.02 0.07 0.21 1.20 1.26 0.98 1.52 1.66 0.96 0.84 0.69 0.93
2.08 1.53 1.80 2.17 1.34 0.75 1.13 1.46 1.53 2.18 3.37 4.19 4.09 2.55 1.36 0.89 0.47 0.41 0.30 0.26 0.27 0.33 0.40 0.43 0.45 0.36 0.03 0.01 0.00 0.02 0.01 0.04 0.21 0.43 1.35 0.74 1.10 1.24 1.19 1.03 0.61 0.66 0.95
4.59 4.05 3.70 4.00 5.13 2.85 2.56 1.76 1.36 1.47 2.52 4.90 5.29 3.92 2.58 1.93 1.72 1.18 0.69 0.51 0.55 0.52 0.42 0.44 0.26 0.19 0.03 0.01 0.01 0.05 0.04 0.06 0.21 0.46 1.01 0.67 1.33 1.23 1.04 0.90 0.73 0.59 0.67
6.63 8.76 9.08 7.75 8.10 7.64 4.86 3.04 1.99 1.41 1.26 1.68 2.39 2.00 2.09 2.35 1.79 1.64 1.44 0.88 0.60 0.43 0.40 0.29 0.13 0.08 0.06 0.03 0.04 0.10 0.07 0.04 0.16 0.64 1.30 0.91 1.14 1.25 0.80 0.65 0.47 0.38 0.35
5.54 7.05 10.73 9.55 7.17 5.94 6.78 5.98 3.58 2.63 1.74 1.50 1.48 1.79 1.43 2.21 1.72 1.28 1.40 1.61 0.78 0.42 0.62 0.48 0.33 0.54 0.22 0.24 0.21 0.19 0.11 0.10 0.22 0.46 0.99 0.65 0.86 1.40 0.99 0.60 0.41 0.31 0.27
2.60 3.37 3.98 4.09 3.32 2.93 3.65 4.60 4.44 3.05 2.55 2.21 1.49 1.61 1.74 1.69 1.59 1.43 1.46 1.68 1.33 0.59 0.52 0.52 0.69 0.52 0.57 0.39 0.22 0.26 0.30 0.29 0.18 0.57 0.66 0.41 0.67 1.13 1.11 0.67 0.53 0.44 0.30
2.30 1.64 1.69 1.30 0.90 0.88 1.34 2.08 2.81 2.59 2.65 2.61 2.12 1.37 2.08 2.20 1.31 1.60 1.83 1.64 1.13 0.61 0.56 0.59 0.57 0.61 0.59 0.63 0.65 0.64 0.46 0.21 0.31 0.38 0.46 0.31 0.59 0.63 0.95 1.15 0.80 0.56 0.50
0.95 0.78 0.51 0.41 0.33 0.30 0.30 0.47 0.80 1.57 2.31 2.35 2.90 1.66 1.55 2.43 1.42 1.50 1.89 1.38 1.16 0.76 0.54 0.56 0.52 0.56 0.54 0.44 0.59 0.52 0.25 0.19 0.31 0.56 0.40 0.29 0.50 0.54 0.90 1.09 0.68 0.67 0.69
0.32 0.22 0.28 0.50 0.51 0.25 0.26 0.24 0.32 0.77 1.56 1.62 2.61 2.26 1.00 1.45 1.74 1.82 2.22 1.40 0.98 0.93 0.74 0.65 0.38 0.32 0.27 0.29 0.34 0.38 0.41 0.42 0.52 0.53 0.43 0.21 0.45 0.68 0.94 0.71 0.58 0.55 0.56
0.16 0.16 0.12 0.18 0.27 0.29 0.28 0.27 0.29 0.56 0.98 1.02 1.39 2.46 1.26 1.17 1.35 1.57 1.64 1.25 0.66 0.60 0.57 0.61 0.46 0.40 0.38 0.43 0.38 0.37 0.48 0.77 0.89 1.14 0.56 0.29 0.51 1.03 0.91 0.76 0.58 0.49 0.49
0.08 0.16 0.20 0.21 0.39 0.49 0.49 0.37 0.30 0.79 0.95 0.87 0.90 1.28 1.26 1.16 1.01 1.39 1.18 1.44 0.80 0.57 0.47 0.50 0.40 0.35 0.32 0.35 0.25 0.32 0.43 0.72 1.30 1.06 0.71 0.39 0.37 0.71 1.06 1.04 0.80 0.52 0.56
0.10 0.19 0.28 0.29 0.47 0.37 0.50 0.58 0.67 0.83 0.95 0.82 0.74 0.91 0.96 1.11 1.10 1.30 1.21 1.14 1.04 1.02 0.54 0.49 0.46 0.27 0.30 0.35 0.39 0.27 0.29 0.34 0.54 0.58 0.43 0.36 0.47 0.71 1.23 1.53 1.49 1.16 0.70
0.22 0.25 0.42 0.65 0.56 0.29 0.26 0.31 0.66 1.07 0.89 0.78 0.79 0.83 0.87 0.86 0.94 1.03 1.14 1.05 0.90 1.29 0.85 0.59 0.65 0.63 0.46 0.31 0.33 0.36 0.38 0.24 0.16 0.18 0.25 0.30 0.40 0.62 0.75 1.06 1.43 1.52 1.42
0.07 0.19 0.43 0.61 0.58 0.51 0.33 0.46 0.49 0.86 1.10 0.93 0.71 0.76 1.06 1.01 0.94 0.86 1.04 0.85 1.06 1.03 0.85 0.72 0.90 0.89 0.76 0.40 0.37 0.36 0.43 0.40 0.33 0.25 0.15 0.17 0.20 0.18 0.36 0.69 0.92 1.39 1.56
0.02 0.19 0.62 0.82 0.83 0.78 0.69 0.73 1.01 0.97 0.96 0.77 0.77 0.69 0.68 0.74 0.97 0.90 0.90 1.00 1.21 1.32 1.19 1.22 1.14 1.09 0.86 0.67 0.43 0.31 0.35 0.35 0.24 0.25 0.17 0.12 0.13 0.18 0.22 0.41 0.59 0.80 1.37
0.03 0.26 0.74 0.92 1.16 1.30 1.14 1.06 0.89 0.81 0.73 0.71 0.63 0.70 0.82 0.85 0.82 0.96 0.87 0.83 1.07 1.39 1.10 1.04 0.93 1.00 0.97 0.96 0.82 0.78 0.71 0.66 0.51 0.40 0.32 0.25 0.22 0.26 0.30 0.31 0.43 0.45 0.52
0.10 0.40 0.74 0.90 1.20 1.16 0.66 0.53 0.57 0.57 0.45 0.59 0.60 0.68 0.86 1.09 1.12 1.01 0.89 0.87 0.98 1.02 1.02 1.30 1.55 1.74 1.55 1.25 1.19 1.03 0.72 0.62 0.53 0.37 0.32 0.25 0.24 0.30 0.40 0.47 0.54 0.59 0.54
0.24 0.52 0.62 0.49 0.35 0.21 0.18 0.29 0.42 0.51 0.52 0.48 0.57 0.74 0.69 1.02 1.05 0.88 0.87 0.87 1.00 1.13 1.05 0.91 1.05 1.20 1.18 1.10 1.06 1.07 1.01 0.86 0.62 0.42 0.35 0.32 0.33 0.42 0.46 0.49 0.62 0.67 0.73
0.15 0.16 0.14 0.11 0.09 0.13 0.16 0.38 0.61 0.91 0.84 0.69 0.60 0.60 0.75 0.96 1.15 1.06 0.92 0.82 0.81 1.23 1.50 1.26 1.21 1.28 1.19 1.17 1.19 1.25 1.13 0.89 0.60 0.60 0.58 0.43 0.52 0.55 0.68 0.97 1.28 1.47 1.22
0.03 0.14 0.15 0.15 0.17 0.26 0.30 0.40 0.54 0.54 0.42 0.28 0.31 0.41 0.51 0.86 1.21 1.03 1.37 1.50 1.35 1.16 1.31 1.67 1.75 1.64 1.87 1.79 2.16 1.98 1.63 1.60 1.57 1.38 0.95 0.94 1.02 1.09 1.35 1.54 1.34 1.23 1.14
0.09 0.16 0.18 0.17 0.21 0.32 0.38 0.43 0.76 0.83 0.86 0.88 1.02 1.14 1.21 1.37 1.68 1.68 1.62 2.13 2.12 1.89 1.54 1.93 2.73 3.13 3.03 3.46 3.45 3.09 3.10 2.67 2.15 2.11 2.00 2.17 2.35 1.65 1.21 0.86 0.82 0.97 1.13
0.13 0.18 0.15 0.27 0.43 0.74 0.99 1.15 1.32 1.55 1.61 1.56 1.55 1.52 1.59 1.79 2.20 2.33 2.56 2.56 3.02 3.04 2.74 2.51 2.86 3.55 4.00 3.77 3.28 3.32 3.18 2.91 2.41 3.24 3.27 2.62 2.30 1.89 1.46 1.22 0.99 0.89 1.09

GFSSE_prec_precacc_270.txt.gz
Total_Precipitation_Accumulation
0.51 0.16 0.15 0.28 0.24 0.16 0.13 0.09 0.06 0.05 0.09 0.07 0.07 0.05 0.05 0.04 0.06 0.04 0.12 0.17 0.11 0.13 0.09 0.02 0.02 0.06 0.10 0.12 0.18 0.28 0.21 0.31 0.49 0.77 0.63 0.51 0.35 0.32 0.36 0.45 0.61 0.94 1.19
0.76 0.47 0.47 0.35 0.17 0.15 0.21 0.15 0.09 0.07 0.10 0.07 0.03 0.01 0.01 0.01 0.02 0.05 0.17 0.24 0.23 0.16 0.13 0.05 0.05 0.07 0.14 0.11 0.10 0.13 0.13 0.10 0.14 0.41 0.71 0.94 0.73 0.53 0.64 0.62 0.49 0.68 0.94
1.57 1.10 1.61 1.35 0.68 0.31 0.27 0.23 0.09 0.08 0.06 0.05 0.02 0.01 0.02 0.02 0.02 0.03 0.04 0.12 0.16 0.10 0.09 0.05 0.06 0.08 0.10 0.10 0.13 0.12 0.05 0.03 0.08 0.20 0.53 0.94 0.83 1.07 0.65 0.45 0.40 0.61 0.76
1.53 1.61 1.47 2.33 1.47 1.00 0.75 0.82 0.87 0.41 0.29 0.09 0.07 0.10 0.12 0.09 0.08 0.10 0.07 0.11 0.09 0.09 0.10 0.10 0.12 0.14 0.13 0.12 0.12 0.09 0.03 0.02 0.02 0.11 0.40 1.56 1.45 1.10 0.84 0.52 0.59 0.73 0.88
1.09 1.01 1.31 2.12 1.59 1.06 1.15 1.15 1.68 2.01 1.89 1.04 0.46 0.42 0.39 0.31 0.20 0.12 0.11 0.11 0.11 0.16 0.15 0.10 0.17 0.17 0.07 0.03 0.08 0.11 0.01 0.02 0.07 0.21 1.20 1.26 0.98 1.52 1.66 0.96 0.84 0.69 0.93
2.08 1.53 1.80 2.17 1.34 0.75 1.13 1.46 1.53 2.18 3.37 4.19 4.09 2.55 1.36 0.89 0.47 0.41 0.30 0.26 0.27 0.33 0.40 0.43 0.45 0.36 0.03 0.01 0.00 0.02 0.01 0.04 0.21 0.43 1.35 0.74 1.10 1.24 1.19 1.03 0.61 0.66 0.95
4.59 4.05 3.70 4.00 5.13 2.85 2.56 1.76 1.36 1.47 2.52 4.90 5.29 3.92 2.58 1.93 1.72 1.18 0.69 0.51 0.55 0.52 0.42 0.44 0.26 0.19 0.03 0.01 0.01 0.05 0.04 0.06 0.21 0.46 1.01 0.67 1.33 1.23 1.04 0.90 0.73 0.59 0.67
6.63 8.76 9.08 7.75 8.10 7.64 4.86 3.04 1.99 1.41 1.26 1.68 2.39 2.00 2.09 2.35 1.79 1.64 1.44 0.88 0.60 0.43 0.40 0.29 0.13 0.08 0.06 0.03 0.04 0.10 0.07 0.04 0.16 0.64 1.30 0.91 1.14 1.25 0.80 0.65 0.47 0.38 0.35
5.54 7.05 10.73 9.55 7.17 5.94 6.78 5.98 3.58 2.63 1.74 1.50 1.48 1.79 1.43 2.21 1.72 1.28 1.40 1.61 0.78 0.42 0.62 0.48 0.33 0.54 0.22 0.24 0.21 0.19 0.11 0.10 0.22 0.46 0.99 0.65 0.86 1.40 0.99 0.60 0.41 0.31 0.27
2.60 3.37 3.98 4.09 3.32 2.93 3.65 4.60 4.44 3.05 2.55 2.21 1.49 1.61 1.74 1.69 1.59 1.43 1.46 1.68 1.33 0.59 0.52 0.52 0.69 0.52 0.57 0.39 0.22 0.26 0.30 0.29 0.18 0.57 0.66 0.41 0.67 1.13 1.11 0.67 0.53 0.44 0.30
2.30 1.64 1.69 1.30 0.90 0.88 1.34 2.08 2.81 2.59 2.65 2.61 2.12 1.37 2.08 2.20 1.31 1.60 1.83 1.64 1.13 0.61 0.56 0.59 0.57 0.61 0.59 0.63 0.65 0.64 0.46 0.21 0.31 0.38 0.46 0.31 0.59 0.63 0.95 1.15 0.80 0.56 0.50
0.95 0.78 0.51 0.41 0.33 0.30 0.30 0.47 0.80 1.57 2.31 2.35 2.90 1.66 1.55 2.43 1.42 1.50 1.89 1.38 1.16 0.76 0.54 0.56 0.52 0.56 0.54 0.44 0.59 0.52 0.25 0.19 0.31 0.56 0.40 0.29 0.50 0.54 0.90 1.09 0.68 0.67 0.69
0.32 0.22 0.28 0.50 0.51 0.25 0.26 0.24 0.32 0.77 1.56 1.62 2.61 2.26 1.00 1.45 1.74 1.82 2.22 1.40 0.98 0.93 0.74 0.65 0.38 0.32 0.27 0.29 0.34 0.38 0.41 0.42 0.52 0.53 0.43 0.21 0.45 0.68 0.94 0.71 0.58 0.55 0.56
0.16 0.16 0.12 0.18 0.27 0.29 0.28 0.27 0.29 0.56 0.98 1.02 1.39 2.46 1.26 1.17 1.35 1.57 1.64 1.25 0.66 0.60 0.57 0.61 0.46 0.40 0.38 0.43 0.38 0.37 0.48 0.77 0.89 1.14 0.56 0.29 0.51 1.03 0.91 0.76 0.58 0.49 0.49
0.08 0.16 0.20 0.21 0.39 0.49 0.49 0.37 0.30 0.79 0.95 0.87 0.90 1.28 1.26 1.16 1.01 1.39 1.18 1.44 0.80 0.57 0.47 0.50 0.40 0.35 0.32 0.35 0.25 0.32 0.43 0.72 1.30 1.06 0.71 0.39 0.37 0.71 1.06 1.04 0.80 0.52 0.56
0.10 0.19 0.28 0.29 0.47 0.37 0.50 0.58 0.67 0.83 0.95 0.82 0.74 0.91 0.96 1.11 1.10 1.30 1.21 1.14 1.04 1.02 0.54 0.49 0.46 0.27 0.30 0.35 0.39 0.27 0.29 0.34 0.54 0.58 0.43 0.36 0.47 0.71 1.23 1.53 1.49 1.16 0.70
0.22 0.25 0.42 0.65 0.56 0.29 0.26 0.31 0.66 1.07 0.89 0.78 0.79 0.83 0.87 0.86 0.94 1.03 1.14 1.05 0.90 1.29 0.85 0.59 0.65 0.63 0.46 0.31 0.33 0.36 0.38 0.24 0.16 0.18 0.25 0.30 0.40 0.62 0.75 1.06 1.43 1.52 1.42
0.07 0.19 0.43 0.61 0.58 0.51 0.33 0.46 0.49 0.86 1.10 0.93 0.71 0.76 1.06 1.01 0.94 0.86 1.04 0.85 1.06 1.03 0.85 0.72 0.90 0.89 0.76 0.40 0.37 0.36 0.43 0.40 0.33 0.25 0.15 0.17 0.20 0.18 0.36 0.69 0.92 1.39 1.56
0.02 0.19 0.62 0.82 0.83 0.78 0.69 0.73 1.01 0.98 0.97 0.78 0.77 0.69 0.68 0.74 0.97 0.90 0.90 1.00 1.21 1.32 1.19 1.22 1.14 1.09 0.86 0.67 0.43 0.31 0.35 0.35 0.24 0.25 0.17 0.12 0.13 0.18 0.22 0.41 0.60 0.80 1.38
0.03 0.26 0.74 0.92 1.16 1.30 1.14 1.06 0.89 0.81 0.73 0.72 0.66 0.77 0.84 0.85 0.83 0.96 0.87 0.83 1.07 1.39 1.10 1.04 0.93 1.00 0.98 0.99 0.83 0.79 0.71 0.66 0.51 0.40 0.32 0.25 0.22 0.26 0.31 0.32 0.49 0.52 0.60
0.10 0.40 0.74 0.90 1.20 1.16 0.66 0.53 0.57 0.57 0.45 0.60 0.64 0.84 0.98 1.15 1.14 1.02 0.89 0.87 0.98 1.02 1.03 1.32 1.58 1.75 1.59 1.44 1.25 1.11 0.73 0.62 0.53 0.37 0.32 0.25 0.24 0.30 0.40 0.48 0.65 0.73 0.71
0.24 0.52 0.62 0.49 0.35 0.21 0.18 0.29 0.42 0.51 0.52 0.48 0.58 0.79 0.82 1.14 1.13 0.92 0.89 0.87 1.00 1.13 1.06 0.93 1.09 1.26 1.19 1.47 1.46 1.44 1.17 0.92 0.63 0.43 0.35 0.32 0.33 0.42 0.47 0.50 0.63 0.78 0.98
0.15 0.16 0.14 0.11 0.09 0.13 0.16 0.38 0.61 0.91 0.84 0.69 0.60 0.60 0.75 0.98 1.22 1.11 0.93 0.82 0.81 1.23 1.50 1.26 1.21 1.40 1.33 1.44 1.74 1.84 1.55 1.07 0.63 0.61 0.58 0.44 0.55 0.58 0.73 1.06 1.44 1.80 2.04
0.03 0.14 0.15 0.15 0.17 0.26 0.30 0.40 0.54 0.54 0.42 0.28 0.31 0.41 0.51 0.94 1.39 1.11 1.37 1.50 1.35 1.16 1.32 1.68 1.76 1.66 1.97 1.87 2.37 2.14 1.80 1.86 1.70 1.41 0.99 0.97 1.10 1.15 1.44 1.71 1.63 1.58 1.51
0.09 0.16 0.18 0.17 0.21 0.32 0.38 0.43 0.76 0.83 0.86 0.88 1.03 1.18 1.24 1.39 1.74 1.75 1.63 2.14 2.12 1.90 1.56 1.97 2.77 3.18 3.08 3.56 3.58 3.17 3.15 2.82 2.32 2.30 2.12 2.21 2.39 1.73 1.44 1.33 1.29 1.36 1.35
0.13 0.18 0.15 0.27 0.43 0.74 0.99 1.15 1.32 1.55 1.61 1.60 1.58 1.58 1.69 1.86 2.23 2.35 2.57 2.56 3.02 3.04 2.74 2.52 2.87 3.56 4.02 3.81 3.33 3.37 3.32 3.07 2.50 3.43 3.50 2.86 2.47 2.17 2.00 1.82 1.34 1.07 1.26